{"data":{"norad_id":54035,"intl_designator":"2022-132A","name":"HJ-2E","alt_names":[],"object_type":"PAYLOAD","status":"ACTIVE","operator":null,"country":"PRC","launch_date":"2022-10-12","launch_site_code":"TAISC","launch_vehicle":null,"mission":null,"orbit_class":"UNKNOWN","rcs_meters":null,"size_class":null,"mass_kg":null,"dimensions":null,"purposes":[],"wikipedia_slug":null,"has_3d_model":false,"image_url":null,"decayed_at":null,"tle_current":{"epoch":"2026-09-20T23:52:21.767232Z","epoch_age_seconds":112768,"freshness":"FRESH","line1":"1 54035U 22132A   26263.99469638  .00004109  00000+0  19335-3 0  9997","line2":"2 54035  97.3852 266.6518 0007018  54.8365 305.3527 15.20088839218992","mean_motion":15.20088839,"eccentricity":0.0007018,"inclination_deg":97.3852,"raan_deg":266.6518,"arg_perigee_deg":54.8365,"mean_anomaly_deg":305.3527,"bstar":0.00019335,"rev_number":21899,"period_min":94.73130537208,"perigee_km":500.7414089868,"apogee_km":510.40338349537,"semimajor_km":6883.7093962411,"source":"CELESTRAK","updated_at":"2026-09-21T09:00:09.349211Z"}}}